Weather History for Novato, CA

Change the Weather History Date:

Saturday, August 10, 2013

  Actual Average (KAPC) Record (KAPC)
Temperature  
Mean Temperature 67 °F 66 °F  
Max Temperature 77 °F 79 °F 93 °F (2002)
Min Temperature 57 °F 52 °F 47 °F (2003)
Degree Days  
Heating Degree Days 0    
Month to date heating degree days  
Since 1 June heating degree days  
Since 1 July heating degree days  
Cooling Degree Days 2    
Month to date cooling degree days  
Year to date cooling degree days  
Since 1 June cooling degree days  
Growing Degree Days 17 (Base 50)    
Moisture  
Dew Point 56 °F    
Average Humidity 79    
Maximum Humidity 100    
Minimum Humidity 47    
Precipitation  
Precipitation 0.00 in - 0.04 in (1936)
Month to date precipitation  
Year to date precipitation  
Since 1 July precipitation  
Sea Level Pressure  
Sea Level Pressure 30.02 in    
Wind  
Wind Speed 5 mph (WNW)    
Max Wind Speed 14 mph    
Max Gust Speed 18 mph    
Visibility 10 miles    
Events      
T = Trace of Precipitation, MM = Missing Value Source: NWS Daily Summary

Daily Weather History Graph

Daily Weather History Graph

Search for Another Location

Airport:

Trip Planner

Search our weather history database for the weather conditions in past years. The results will help you decide how hot, cold, wet, or windy it might be!

Date:

Astronomy

Aug. 10, 2013 Rise Set
Actual Time 6:21 AM PDT 8:09 PM PDT
Civil Twilight 5:52 AM PDT 8:37 PM PDT
Nautical Twilight 5:17 AM PDT 9:12 PM PDT
Astronomical Twilight 4:41 AM PDT 9:48 PM PDT
Moon 10:08 AM PDT 9:58 PM PDT
Length of Visible Light 14h 45m
Length of Day
13h 48m
Waxing Crescent, 15% of the Moon is Illuminated
Aug 10
Waxing Crescent
Aug 14
First Quarter
Aug 20
Full
Aug 28
Last Quarter
Sep 5
New

Hourly Weather History & Observations

Time (PDT) Temp. Dew Point Humidity Pressure Visibility Wind Dir Wind Speed Gust Speed Precip Events Conditions
12:15 AM 57.2 °F 55.4 °F 94% 30.01 in 10.0 mi NNW 3.5 mph - N/A   Overcast
12:35 AM 57.2 °F 55.4 °F 94% 30.02 in 10.0 mi Calm Calm - N/A   Overcast
12:55 AM 57.2 °F 55.4 °F 94% 30.01 in 10.0 mi NW 6.9 mph - N/A   Unknown
1:15 AM 57.2 °F 57.2 °F 100% 30.01 in 10.0 mi NW 5.8 mph - N/A   Unknown
1:35 AM 57.2 °F 55.4 °F 94% 30.01 in 10.0 mi Calm Calm - N/A   Unknown
1:55 AM 57.2 °F 57.2 °F 100% 30.01 in 10.0 mi NNW 5.8 mph - N/A   Unknown
2:15 AM 57.2 °F 57.2 °F 100% 30.01 in 10.0 mi NNW 5.8 mph - N/A   Unknown
2:35 AM 57.2 °F 55.4 °F 94% 30.01 in 10.0 mi NW 6.9 mph - N/A   Unknown
2:55 AM 57.2 °F 57.2 °F 100% 30.01 in 10.0 mi NNW 6.9 mph - N/A   Unknown
3:15 AM 57.2 °F 55.4 °F 94% 30.01 in 10.0 mi NW 4.6 mph - N/A   Unknown
3:35 AM 57.2 °F 55.4 °F 94% 30.01 in 10.0 mi Calm Calm - N/A   Unknown
3:55 AM 57.2 °F 55.4 °F 94% 30.01 in 10.0 mi NNW 3.5 mph - N/A   Unknown
4:15 AM 57.2 °F 55.4 °F 94% 30.01 in 10.0 mi Calm Calm - N/A   Unknown
4:35 AM 57.2 °F 55.4 °F 94% 30.00 in 10.0 mi North 3.5 mph - N/A   Unknown
4:55 AM 57.2 °F 55.4 °F 94% 30.01 in 10.0 mi NNW 6.9 mph - N/A   Unknown
5:15 AM 57.2 °F 55.4 °F 94% 30.01 in 10.0 mi Calm Calm - N/A   Unknown
5:35 AM 57.2 °F 55.4 °F 94% 30.01 in 10.0 mi WSW 6.9 mph - N/A   Unknown
5:55 AM 57.2 °F 55.4 °F 94% 30.01 in 10.0 mi Calm Calm - N/A   Unknown
6:15 AM 57.2 °F 55.4 °F 94% 30.02 in 10.0 mi NNW 3.5 mph - N/A   Unknown
6:35 AM 57.2 °F 55.4 °F 94% 30.02 in 10.0 mi Calm Calm - N/A   Unknown
6:55 AM 57.2 °F 55.4 °F 94% 30.02 in 10.0 mi Calm Calm - N/A   Unknown
7:15 AM 57.2 °F 55.4 °F 94% 30.03 in 10.0 mi North 3.5 mph - N/A   Unknown
7:35 AM 57.2 °F 55.4 °F 94% 30.03 in 10.0 mi North 3.5 mph - N/A   Mostly Cloudy
7:55 AM 57.2 °F 55.4 °F 94% 30.03 in 10.0 mi Calm Calm - N/A   Overcast
8:15 AM 57.2 °F 55.4 °F 94% 30.04 in 10.0 mi ENE 3.5 mph - N/A   Overcast
8:35 AM 59.0 °F 55.4 °F 88% 30.04 in 10.0 mi Calm Calm - N/A   Mostly Cloudy
8:55 AM 60.8 °F 55.4 °F 82% 30.04 in 10.0 mi Calm Calm - N/A   Unknown
9:15 AM 60.8 °F 55.4 °F 82% 30.05 in 10.0 mi NNW 4.6 mph - N/A   Unknown
9:35 AM 60.8 °F 55.4 °F 82% 30.05 in 10.0 mi SW 6.9 mph - N/A   Overcast
9:55 AM 60.8 °F 55.4 °F 82% 30.05 in 10.0 mi SSW 4.6 mph - N/A   Overcast
10:15 AM 62.6 °F 55.4 °F 77% 30.05 in 10.0 mi SSW 8.1 mph - N/A   Unknown
10:35 AM 64.4 °F 55.4 °F 73% 30.05 in 10.0 mi SW 9.2 mph - N/A   Unknown
10:55 AM 66.2 °F 55.4 °F 68% 30.05 in 10.0 mi SSW 8.1 mph - N/A   Unknown
11:15 AM 66.2 °F 55.4 °F 68% 30.05 in 10.0 mi SW 8.1 mph - N/A   Unknown
11:35 AM 68.0 °F 55.4 °F 64% 30.05 in 10.0 mi SW 6.9 mph - N/A   Unknown
11:55 AM 68.0 °F 55.4 °F 64% 30.05 in 10.0 mi SW 4.6 mph - N/A   Unknown
12:15 PM 71.6 °F 55.4 °F 57% 30.04 in - South 6.9 mph - N/A   Unknown
12:35 PM 71.6 °F 55.4 °F 57% 30.04 in - SSW 8.1 mph - N/A   Unknown
12:55 PM 73.4 °F 55.4 °F 53% 30.03 in - South 9.2 mph - N/A   Unknown
1:15 PM 75.2 °F 55.4 °F 50% 30.03 in - SW 11.5 mph - N/A   Unknown
1:35 PM 75.2 °F 55.4 °F 50% 30.02 in - SW 9.2 mph - N/A   Unknown
1:55 PM 77.0 °F 55.4 °F 47% 30.02 in - WSW 9.2 mph - N/A   Unknown
2:15 PM 77.0 °F 55.4 °F 47% 30.02 in - WSW 13.8 mph - N/A   Unknown
2:35 PM 77.0 °F 55.4 °F 47% 30.02 in - WSW 13.8 mph 17.3 mph N/A   Unknown
2:55 PM 77.0 °F 55.4 °F 47% 30.02 in - WSW 13.8 mph 18.4 mph N/A   Unknown
3:15 PM 77.0 °F 55.4 °F 47% 30.01 in - West 9.2 mph - N/A   Unknown
3:35 PM 77.0 °F 55.4 °F 47% 30.01 in - NW 6.9 mph - N/A   Unknown
3:55 PM 75.2 °F 55.4 °F 50% 30.01 in - NNW 9.2 mph 17.3 mph N/A   Unknown
4:15 PM 75.2 °F 55.4 °F 50% 30.01 in - NNW 12.7 mph 16.1 mph N/A   Clear
4:35 PM 73.4 °F 55.4 °F 53% 30.01 in - NNW 11.5 mph - N/A   Clear
4:55 PM 73.4 °F 55.4 °F 53% 30.01 in - North 12.7 mph 17.3 mph N/A   Clear
5:15 PM 71.6 °F 55.4 °F 57% 30.01 in - NNW 9.2 mph 16.1 mph N/A   Clear
5:35 PM 71.6 °F 57.2 °F 60% 30.01 in - NW 10.4 mph 18.4 mph N/A   Clear
5:55 PM 69.8 °F 57.2 °F 64% 30.01 in - West 6.9 mph - N/A   Clear
6:15 PM 68.0 °F 57.2 °F 68% 30.01 in - NNW 6.9 mph - N/A   Clear
6:35 PM 68.0 °F 55.4 °F 64% 30.01 in - West 4.6 mph - N/A   Clear
6:55 PM 66.2 °F 57.2 °F 73% 30.01 in - Calm Calm - N/A   Clear
7:15 PM 66.2 °F 57.2 °F 73% 30.00 in 10.0 mi Calm Calm - N/A   Clear
7:35 PM 62.6 °F 57.2 °F 82% 30.01 in 10.0 mi North 5.8 mph - N/A   Clear
7:55 PM 62.6 °F 57.2 °F 82% 30.01 in 10.0 mi ENE 3.5 mph - N/A   Clear
8:15 PM 60.8 °F 57.2 °F 88% 30.01 in 10.0 mi East 3.5 mph - N/A   Clear
8:35 PM 60.8 °F 57.2 °F 88% 30.01 in 10.0 mi East 3.5 mph - N/A   Clear
8:55 PM 59.0 °F 57.2 °F 94% 30.01 in 10.0 mi ESE 3.5 mph - N/A   Clear
9:15 PM 59.0 °F 57.2 °F 94% 30.02 in 10.0 mi Calm Calm - N/A   Clear
9:35 PM 59.0 °F 57.2 °F 94% 30.03 in 10.0 mi ENE 4.6 mph - N/A   Clear
9:55 PM 59.0 °F 57.2 °F 94% 30.03 in 10.0 mi Calm Calm - N/A   Clear
10:15 PM 59.0 °F 57.2 °F 94% 30.03 in 10.0 mi SE 4.6 mph - N/A   Clear
10:35 PM 59.0 °F 57.2 °F 94% 30.03 in 10.0 mi ESE 5.8 mph - N/A   Clear
10:55 PM 57.2 °F 57.2 °F 100% 30.03 in 10.0 mi ESE 6.9 mph - N/A   Clear
11:15 PM 57.2 °F 57.2 °F 100% 30.03 in 10.0 mi NE 4.6 mph - N/A   Partly Cloudy
11:35 PM 57.2 °F 57.2 °F 100% 30.03 in 10.0 mi Calm Calm - N/A   Clear
11:55 PM 57.2 °F 57.2 °F 100% 30.03 in 10.0 mi ESE 4.6 mph - N/A   Clear